TimeEDT,TemperatureF,Dew PointF,Humidity,Sea Level PressureIn,VisibilityMPH,Wind Direction,Wind SpeedMPH,Gust SpeedMPH,PrecipitationIn,Events,Conditions,WindDirDegrees,DateUTC
12:58 AM,81.5,75.0,81,29.84,10.0,WSW,9.2,-,N/A,,Clear,250,2013-07-20 04:58:00
1:58 AM,80.4,72.7,77,29.85,10.0,WSW,5.8,-,N/A,,Clear,250,2013-07-20 05:58:00
2:58 AM,78.3,72.0,81,29.83,10.0,SW,8.1,-,N/A,,Clear,230,2013-07-20 06:58:00
3:58 AM,77.7,70.2,77,29.81,10.0,WSW,8.1,-,N/A,,Clear,240,2013-07-20 07:58:00
4:58 AM,77.0,72.0,84,29.81,10.0,SW,5.8,-,N/A,,Clear,230,2013-07-20 08:58:00
5:58 AM,76.5,71.8,85,29.83,10.0,WSW,6.9,-,N/A,,Partly Cloudy,250,2013-07-20 09:58:00
6:58 AM,78.1,71.2,79,29.84,10.0,WSW,11.5,-,N/A,,Clear,250,2013-07-20 10:58:00
7:58 AM,79.7,72.7,79,29.85,10.0,WSW,6.9,-,N/A,,Scattered Clouds,250,2013-07-20 11:58:00
8:58 AM,81.0,73.6,78,29.83,10.0,SW,10.4,-,N/A,,Scattered Clouds,230,2013-07-20 12:58:00
9:58 AM,83.5,73.2,71,29.83,10.0,WSW,16.1,-,N/A,,Scattered Clouds,250,2013-07-20 13:58:00
10:58 AM,86.9,73.9,65,29.83,10.0,WSW,16.1,-,N/A,,Scattered Clouds,250,2013-07-20 14:58:00
11:58 AM,88.9,73.0,59,29.82,10.0,WSW,17.3,-,N/A,,Scattered Clouds,250,2013-07-20 15:58:00
12:58 PM,90.5,72.9,56,29.80,10.0,SW,18.4,-,N/A,,Partly Cloudy,230,2013-07-20 16:58:00
1:58 PM,91.4,72.9,54,29.77,10.0,WSW,17.3,21.9,N/A,,Clear,240,2013-07-20 17:58:00
2:58 PM,92.7,72.7,52,29.76,10.0,WSW,16.1,26.5,N/A,,Clear,240,2013-07-20 18:58:00
3:58 PM,93.0,72.7,51,29.75,10.0,West,18.4,26.5,N/A,,Clear,260,2013-07-20 19:58:00
4:58 PM,91.2,74.5,58,29.75,10.0,West,15.0,-,N/A,,Mostly Cloudy,260,2013-07-20 20:58:00
5:58 PM,89.6,71.8,56,29.76,10.0,West,10.4,-,N/A,,Clear,270,2013-07-20 21:58:00
6:50 PM,87.8,73.4,62,29.75,10.0,WSW,11.5,-,N/A,Rain,Light Rain,240,2013-07-20 22:50:00
6:58 PM,88.3,73.2,61,29.76,10.0,WSW,10.4,-,0.00,Rain,Light Rain,240,2013-07-20 22:58:00
6:59 PM,87.8,73.4,62,29.75,10.0,WSW,10.4,-,N/A,,Clear,240,2013-07-20 22:59:00
7:58 PM,84.7,73.6,69,29.79,10.0,SW,8.1,-,0.00,,Clear,220,2013-07-20 23:58:00
8:58 PM,81.0,73.6,78,29.81,10.0,South,3.5,-,N/A,,Clear,190,2013-07-21 00:58:00
9:08 PM,82.4,73.4,74,29.80,9.0,South,2.3,-,N/A,,Clear,180,2013-07-21 01:08:00
9:09 PM,80.6,73.4,79,29.80,8.0,South,2.3,-,N/A,Rain,Light Rain,180,2013-07-21 01:09:00
9:17 PM,82.4,73.4,74,29.80,9.0,South,1.2,-,N/A,Rain,Light Rain,190,2013-07-21 01:17:00
9:19 PM,82.4,73.4,74,29.80,10.0,SSW,1.2,-,N/A,,Clear,200,2013-07-21 01:19:00
9:58 PM,80.4,74.7,83,29.81,10.0,SW,2.3,-,0.00,,Clear,220,2013-07-21 01:58:00
10:35 PM,80.6,68.0,65,29.82,10.0,West,8.1,-,N/A,Rain,Light Rain,270,2013-07-21 02:35:00
10:58 PM,77.0,67.8,73,29.85,10.0,West,11.5,-,0.00,Rain,Light Rain,270,2013-07-21 02:58:00
11:19 PM,75.2,69.8,83,29.85,9.0,SSW,10.4,-,N/A,Rain-Thunderstorm,Rain,210,2013-07-21 03:19:00
11:28 PM,73.4,69.8,88,29.84,9.0,SSE,5.8,-,N/A,Rain,Light Rain,160,2013-07-21 03:28:00
11:29 PM,73.4,69.8,88,29.84,10.0,SSE,5.8,-,N/A,,Mostly Cloudy,150,2013-07-21 03:29:00
11:58 PM,72.9,70.7,93,29.85,10.0,West,5.8,-,0.02,,Mostly Cloudy,270,2013-07-21 03:58:00